This demonstration page uses our WeatherBlox Daily Observations layout. Learn more.

Hourly Observations for March 10, 2017

Temp ( °F °C ) Dew Point ( °F °C ) Humidity (%) Winds ( mph kmh ) Pressure ( in mb ) Visibility ( mi km ) Precip ( " mm )
12:15 am 00:15 Clear 25 -3.8 19 -7.1 78 78 NNE 18 30 30.56 1035 10 16.0934 0 0
12:35 am 00:35 Clear 25 -4 19 -7.1 79 79 NNE 13 20 30.59 1036 10 16.0934 0 0
12:55 am 00:55 Partly Cloudy 25 -4.1 19 -7 80 80 NNE 10 17 30.59 1036 10 16.0934 0 0
1:15 am 01:15 Mostly Cloudy 25 -4 19 -7 80 80 N 14 22 30.62 1037 10 16.0934 0 0
1:35 am 01:35 Cloudy 25 -4 19 -7.3 78 78 NE 14 22 30.62 1037 10 16.0934 0 0
1:55 am 01:55 Cloudy 25 -3.8 19 -7.2 78 78 NE 14 22 30.62 1037 10 16.0934 0 0
2:15 am 02:15 Cloudy 25 -3.7 19 -7.2 77 77 NNE 13 20 30.62 1037 10 16.0934 0 0
2:35 am 02:35 Cloudy 26 -3.5 19 -7 77 77 NNE 14 22 30.62 1037 10 16.0934 0 0
2:55 am 02:55 Cloudy 26 -3.5 19 -7 77 77 NNE 14 22 30.62 1037 10 16.0934 0 0
3:15 am 03:15 Cloudy 25 -3.8 19 -7.3 77 77 NNE 13 20 30.62 1037 10 16.0934 0 0
3:35 am 03:35 Cloudy 25 -4 19 -7.5 77 77 NNE 14 22 30.62 1037 10 16.0934 0 0
3:55 am 03:55 Cloudy 25 -4.1 19 -7.5 77 77 NNE 12 19 30.62 1037 10 16.0934 0 0
4:15 am 04:15 Cloudy 24 -4.3 18 -7.9 76 76 NNE 12 19 30.62 1037 10 16.0934 0 0
4:35 am 04:35 Cloudy 24 -4.6 17 -8.1 77 77 NNE 13 20 30.62 1037 10 16.0934 0 0
4:55 am 04:55 Cloudy 24 -4.6 18 -8 77 77 NE 13 20 30.62 1037 10 16.0934 0 0
5:15 am 05:15 Cloudy 23 -4.8 18 -7.9 79 79 NNE 10 17 30.62 1037 10 16.0934 0 0
5:35 am 05:35 Cloudy 23 -4.9 18 -8 79 79 NE 10 17 30.62 1037 10 16.0934 0 0
5:55 am 05:55 Cloudy 23 -5.2 17 -8.5 78 78 NE 10 17 30.62 1037 10 16.0934 0 0
6:15 am 06:15 Cloudy 22 -5.5 16 -8.7 78 78 NE 8 13 30.65 1038 10 16.0934 0 0
6:35 am 06:35 Cloudy 22 -5.4 17 -8.6 78 78 NE 9 15 30.65 1038 10 16.0934 0 0
6:55 am 06:55 Cloudy 22 -5.5 16 -8.7 78 78 NE 3 6 30.65 1038 10 16.0934 0 0
7:15 am 07:15 Cloudy 22 -5.5 16 -8.8 78 78 NE 8 13 30.65 1038 10 16.0934 0 0
7:35 am 07:35 Cloudy 22 -5.6 16 -8.8 78 78 NE 9 15 30.65 1038 10 16.0934 0 0
7:55 am 07:55 Cloudy 22 -5.8 16 -9 78 78 NE 8 13 30.68 1039 10 16.0934 0 0
8:15 am 08:15 Cloudy 22 -5.5 16 -9 77 77 NE 7 11 30.68 1039 10 16.0934 0 0
8:35 am 08:35 Cloudy 22 -5.6 16 -9 77 77 NE 3 6 30.68 1039 10 16.0934 0 0
8:55 am 08:55 Cloudy 22 -5.5 16 -9 77 77 Calm 30.68 1039 10 16.0934 0 0
9:15 am 09:15 Cloudy 22 -5.4 16 -9.1 75 75 ENE 7 11 30.68 1039 10 16.0934 0 0
9:35 am 09:35 Cloudy 23 -5.2 16 -9 75 75 ENE 7 11 30.68 1039 10 16.0934 0 0
9:55 am 09:55 Cloudy 23 -4.8 16 -8.8 74 74 E 3 6 30.65 1038 10 16.0934 0 0
10:15 am 10:15 Cloudy 24 -4.7 16 -8.9 73 73 E 5 7 30.65 1038 10 16.0934 0 0
10:35 am 10:35 Cloudy 24 -4.6 16 -8.9 72 72 E 8 13 30.65 1038 10 16.0934 0 0
10:55 am 10:55 Cloudy 25 -3.9 17 -8.6 70 70 E 8 13 30.62 1037 10 16.0934 0 0
11:15 am 11:15 Cloudy 26 -3.5 16 -8.7 68 68 SE 7 11 30.62 1037 10 16.0934 0 0
11:35 am 11:35 Cloudy 26 -3.1 17 -8.5 67 67 SE 12 19 30.62 1037 10 16.0934 0 0
11:55 am 11:55 Cloudy 28 -2.5 16 -8.9 62 62 SE 13 20 30.62 1037 10 16.0934 0 0
12:15 pm 12:15 Cloudy 29 -1.7 16 -9 58 58 SE 13 20 30.56 1035 10 16.0934 0 0
12:35 pm 12:35 Cloudy 30 -1.2 16 -8.8 57 57 SE 10 17 30.53 1034 10 16.0934 0 0
12:55 pm 12:55 Cloudy 31 -0.6 15 -9.2 53 53 SE 10 17 30.53 1034 10 16.0934 0 0
1:15 pm 13:15 Cloudy 32 0 16 -8.8 52 52 ESE 10 17 30.48 1032 10 16.0934 0 0
1:35 pm 13:35 Cloudy 33 0.4 16 -9 50 50 SE 10 17 30.45 1031 10 16.0934 0 0
1:55 pm 13:55 Cloudy 33 0.8 16 -9 48 48 SE 13 20 30.45 1031 10 16.0934 0 0
2:15 pm 14:15 Cloudy 34 1 16 -9 48 48 SSE 12 19 30.42 1030 10 16.0934 0 0
2:35 pm 14:35 Cloudy 35 1.6 15 -9.2 45 45 SE 14 22 30.42 1030 10 16.0934 0 0
2:55 pm 14:55 Cloudy 36 2 15 -9.2 44 44 SE 10 17 30.39 1029 10 16.0934 0 0
3:15 pm 15:15 Cloudy 36 2 15 -9.5 43 43 SE 12 19 30.39 1029 10 16.0934 0 0
3:35 pm 15:35 Cloudy 35 1.6 13 -10.6 40 40 SE 16 26 30.39 1029 10 16.0934 0 0
3:55 pm 15:55 Cloudy 36 2 11 -11.4 37 37 SE 14 22 30.39 1029 10 16.0934 0 0
4:15 pm 16:15 Cloudy 36 2.1 11 -11.7 36 36 SE 16 26 30.33 1027 10 16.0934 0 0
4:35 pm 16:35 Cloudy 35 1.9 11 -11.6 36 36 SE 15 24 30.33 1027 10 16.0934 0 0
4:55 pm 16:55 Cloudy 35 1.5 11 -11.6 37 37 SE 14 22 30.36 1028 10 16.0934 0 0
5:15 pm 17:15 Cloudy 35 1.7 11 -11.6 37 37 SE 10 17 30.36 1028 10 16.0934 0 0
5:35 pm 17:35 Cloudy 35 1.5 10 -12 36 36 SE 13 20 30.33 1027 10 16.0934 0 0
5:55 pm 17:55 Cloudy 35 1.5 11 -11.7 37 37 SE 13 20 30.33 1027 10 16.0934 0 0
6:15 pm 18:15 Cloudy 34 1.3 11 -11.6 38 38 SE 14 22 30.33 1027 10 16.0934 0 0
6:35 pm 18:35 Cloudy 34 1.1 11 -11.6 39 39 ESE 12 19 30.33 1027 10 16.0934 0 0
6:55 pm 18:55 Cloudy 34 1 11 -11.7 38 38 ESE 9 15 30.36 1028 10 16.0934 0 0
7:15 pm 19:15 Cloudy 33 0.7 11 -11.7 39 39 ESE 12 19 30.36 1028 10 16.0934 0 0
7:35 pm 19:35 Cloudy 33 0.5 10 -12 39 39 ESE 14 22 30.36 1028 10 16.0934 0 0
7:55 pm 19:55 Cloudy 33 0.5 10 -12.1 39 39 ESE 14 22 30.36 1028 10 16.0934 0 0
8:15 pm 20:15 Mostly Cloudy 32 0.1 10 -12.5 39 39 ESE 12 19 30.36 1028 10 16.0934 0 0
8:35 pm 20:35 Mostly Cloudy 32 0 10 -12 40 40 ESE 10 17 30.36 1028 10 16.0934 0 0
8:55 pm 20:55 Cloudy 32 0.1 10 -12 40 40 ESE 10 17 30.39 1029 10 16.0934 0 0
9:15 pm 21:15 Cloudy 32 0.1 10 -12 40 40 SE 12 19 30.39 1029 10 16.0934 0 0
9:35 pm 21:35 Cloudy 32 0.1 10 -12.2 39 39 ESE 10 17 30.39 1029 10 16.0934 0 0
9:55 pm 21:55 Cloudy 32 0 10 -12 40 40 E 13 20 30.39 1029 10 16.0934 0 0
10:15 pm 22:15 Cloudy 32 0 10 -12 40 40 ESE 12 19 30.39 1029 10 16.0934 0 0
10:35 pm 22:35 Cloudy 28 -2 9 -13 43 43 E 15 24 30.42 1030 10 16.0934 0 0
10:55 pm 22:55 Cloudy 27 -2.6 8 -13.1 45 45 E 16 26 30.42 1030 10 16.0934 0 0
11:15 pm 23:15 Cloudy 26 -3.3 8 -13.5 46 46 E 15 24 30.42 1030 10 16.0934 0 0
11:35 pm 23:35 Partly Cloudy 26 -3.4 8 -13.6 46 46 E 17 28 30.42 1030 10 16.0934 0 0
11:55 pm 23:55 Clear 26 -3.5 8 -13.6 46 46 E 15 24 30.42 1030 10 16.0934 0 0

Powered by AerisWeather